Weather History for Montevideo, MN

Change the Weather History Date:

Friday, November 15, 2013

  Actual Average Record
Temperature  
Mean Temperature 42 °F -  
Max Temperature 59 °F 43 °F 65 °F (1953)
Min Temperature 26 °F 21 °F -3 °F (1959)
Degree Days  
Heating Degree Days 22    
Moisture  
Dew Point 34 °F    
Average Humidity 78    
Maximum Humidity 100    
Minimum Humidity 45    
Precipitation  
Precipitation 0.00 in - - ()
Sea Level Pressure  
Sea Level Pressure 29.71 in    
Wind  
Wind Speed 7 mph (SSW)    
Max Wind Speed 20 mph    
Max Gust Speed 28 mph    
Visibility 10 miles    
Events      
Averages and records for this station are not official NWS values.
T = Trace of Precipitation, MM = Missing Value Source: NWS Daily Summary

Daily Weather History Graph

Daily Weather History Graph

Search for Another Location

Airport:

Trip Planner

Search our weather history database for the weather conditions in past years. The results will help you decide how hot, cold, wet, or windy it might be!

Date:

Astronomy

Nov. 15, 2013 Rise Set
Actual Time 7:20 AM CST 4:53 PM CST
Civil Twilight 6:48 AM CST 5:25 PM CST
Nautical Twilight 6:13 AM CST 6:01 PM CST
Astronomical Twilight 5:38 AM CST 6:35 PM CST
Moon 3:54 PM CST (11/15) 5:13 AM CST (11/15)
Length of Visible Light 10h 36m
Length of Day
9h 32m
Waxing Gibbous, 96% of the Moon is Illuminated
Nov 15
Waxing Gibbous
Nov 17
Full
Nov 25
Last Quarter
Dec 2
New
Dec 9
First Quarter

Hourly Weather History & Observations

Time (CST) Temp. Windchill Dew Point Humidity Pressure Visibility Wind Dir Wind Speed Gust Speed Precip Events Conditions
12:15 AM 32.0 °F 25.6 °F 30.2 °F 93% 29.81 in 10.0 mi SW 6.9 mph - N/A   Clear
12:34 AM 32.0 °F 26.4 °F 30.2 °F 93% 29.81 in 10.0 mi SW 5.8 mph - N/A   Clear
12:54 AM 32.0 °F 25.6 °F 30.2 °F 93% 29.81 in 10.0 mi SW 6.9 mph - N/A   Clear
1:15 AM 32.0 °F 27.5 °F 30.2 °F 93% 29.81 in 10.0 mi SW 4.6 mph - N/A   Clear
1:34 AM 30.2 °F 24.3 °F 28.4 °F 93% 29.81 in 10.0 mi SW 5.8 mph - N/A   Clear
1:54 AM 32.0 °F 27.5 °F 30.2 °F 93% 29.81 in 10.0 mi SW 4.6 mph - N/A   Clear
2:14 AM 30.2 °F - 30.2 °F 100% 29.82 in 10.0 mi Calm Calm - N/A   Clear
2:34 AM 28.4 °F 21.2 °F 28.4 °F 100% 29.82 in 10.0 mi WSW 6.9 mph - N/A   Clear
2:54 AM 28.4 °F 22.2 °F 28.4 °F 100% 29.81 in 10.0 mi WSW 5.8 mph - N/A   Clear
3:14 AM 30.2 °F - 30.2 °F 100% 29.81 in 10.0 mi Calm Calm - N/A   Clear
3:34 AM 30.2 °F 25.4 °F 30.2 °F 100% 29.81 in 10.0 mi WSW 4.6 mph - N/A   Clear
3:54 AM 30.2 °F 26.7 °F 30.2 °F 100% 29.81 in 10.0 mi WSW 3.5 mph - N/A   Clear
4:14 AM 30.2 °F 25.4 °F 30.2 °F 100% 29.81 in 10.0 mi West 4.6 mph - N/A   Clear
4:34 AM 32.0 °F - 30.2 °F 93% 29.81 in 10.0 mi Calm Calm - N/A   Clear
4:54 AM 30.2 °F - 30.2 °F 100% 29.80 in 10.0 mi Calm Calm - N/A   Clear
5:14 AM 30.2 °F - 30.2 °F 100% 29.80 in 10.0 mi Calm Calm - N/A   Clear
5:34 AM 28.4 °F 24.6 °F 28.4 °F 100% 29.80 in 10.0 mi WNW 3.5 mph - N/A   Clear
5:54 AM 28.4 °F - 28.4 °F 100% 29.80 in 10.0 mi Calm Calm - N/A   Clear
6:14 AM 26.6 °F - 26.6 °F 100% 29.80 in 10.0 mi Calm Calm - N/A   Clear
6:34 AM 26.6 °F - 26.6 °F 100% 29.80 in 7.0 mi Calm Calm - N/A   Clear
6:54 AM 26.6 °F - 26.6 °F 100% 29.80 in 7.0 mi Calm Calm - N/A   Clear
7:14 AM 26.6 °F 22.6 °F 26.6 °F 100% 29.81 in 10.0 mi SW 3.5 mph - N/A   Clear
7:34 AM 26.6 °F - 26.6 °F 100% 29.81 in 10.0 mi Calm Calm - N/A   Clear
7:54 AM 26.6 °F - 26.6 °F 100% 29.81 in 5.0 mi Calm Calm - N/A   Clear
8:14 AM 26.6 °F - 26.6 °F 100% 29.81 in 7.0 mi Calm Calm - N/A   Clear
8:34 AM 28.4 °F - 28.4 °F 100% 29.80 in 10.0 mi Calm Calm - N/A   Clear
8:54 AM 30.2 °F 25.4 °F 30.2 °F 100% 29.81 in 10.0 mi SW 4.6 mph - N/A   Clear
9:14 AM 32.0 °F - 32.0 °F 100% 29.81 in 10.0 mi Calm Calm - N/A   Clear
9:34 AM 35.6 °F - 33.8 °F 93% 29.80 in 10.0 mi Calm Calm - N/A   Clear
9:54 AM 37.4 °F 34.9 °F 33.8 °F 87% 29.79 in 10.0 mi SSW 3.5 mph - N/A   Clear
10:14 AM 39.2 °F 35.9 °F 35.6 °F 87% 29.79 in 10.0 mi South 4.6 mph - N/A   Scattered Clouds
10:34 AM 41.0 °F 36.4 °F 35.6 °F 81% 29.79 in 10.0 mi South 6.9 mph - N/A   Scattered Clouds
10:54 AM 42.8 °F 40.1 °F 35.6 °F 76% 29.78 in 10.0 mi SSW 4.6 mph - N/A   Clear
11:14 AM 44.6 °F 39.7 °F 35.6 °F 71% 29.78 in 10.0 mi SSW 9.2 mph - N/A   Clear
11:34 AM 46.4 °F 42.9 °F 35.6 °F 66% 29.76 in 10.0 mi SSW 6.9 mph - N/A   Clear
11:54 AM 48.2 °F - 37.4 °F 66% 29.75 in 10.0 mi South 5.8 mph - N/A   Clear
12:14 PM 50.0 °F - 37.4 °F 62% 29.73 in 10.0 mi SSW 6.9 mph - N/A   Clear
12:34 PM 51.8 °F - 35.6 °F 54% 29.72 in 10.0 mi SSW 10.4 mph 16.1 mph N/A   Clear
12:54 PM 53.6 °F - 37.4 °F 54% 29.70 in 10.0 mi SSW 11.5 mph 18.4 mph N/A   Clear
1:14 PM 53.6 °F - 37.4 °F 54% 29.69 in 10.0 mi South 11.5 mph 16.1 mph N/A   Clear
1:34 PM 55.4 °F - 37.4 °F 51% 29.68 in 10.0 mi SSW 9.2 mph 16.1 mph N/A   Clear
1:54 PM 57.2 °F - 37.4 °F 48% 29.67 in 10.0 mi SW 13.8 mph 20.7 mph N/A   Clear
2:14 PM 59.0 °F - 37.4 °F 45% 29.66 in 10.0 mi SW 17.3 mph 27.6 mph N/A   Clear
2:34 PM 57.2 °F - 37.4 °F 48% 29.65 in 10.0 mi WSW 17.3 mph 26.5 mph N/A   Clear
2:54 PM 57.2 °F - 37.4 °F 48% 29.65 in 10.0 mi SW 16.1 mph 27.6 mph N/A   Clear
3:14 PM 57.2 °F - 37.4 °F 48% 29.64 in 10.0 mi SW 19.6 mph 25.3 mph N/A   Clear
3:34 PM 57.2 °F - 37.4 °F 48% 29.64 in 10.0 mi SW 13.8 mph 21.9 mph N/A   Clear
3:54 PM 55.4 °F - 37.4 °F 51% 29.63 in 10.0 mi SW 16.1 mph 19.6 mph N/A   Clear
4:14 PM 55.4 °F - 37.4 °F 51% 29.62 in 10.0 mi SW 16.1 mph 25.3 mph N/A   Clear
4:34 PM 53.6 °F - 37.4 °F 54% 29.62 in 10.0 mi SW 12.7 mph 20.7 mph N/A   Clear
4:53 PM 53.6 °F - 37.4 °F 54% 29.62 in 10.0 mi SW 10.4 mph 17.3 mph N/A   Clear
5:14 PM 51.8 °F - 35.6 °F 54% 29.62 in 10.0 mi SSW 9.2 mph - N/A   Clear
5:34 PM 50.0 °F - 37.4 °F 62% 29.61 in 10.0 mi SSW 10.4 mph - N/A   Clear
5:54 PM 48.2 °F - 37.4 °F 66% 29.61 in 10.0 mi SSW 11.5 mph - N/A   Clear
6:14 PM 48.2 °F - 37.4 °F 66% 29.60 in 10.0 mi South 9.2 mph - N/A   Clear
6:34 PM 48.2 °F - 37.4 °F 66% 29.60 in 10.0 mi SSW 11.5 mph 16.1 mph N/A   Clear
6:54 PM 46.4 °F 41.5 °F 37.4 °F 71% 29.60 in 10.0 mi SSW 10.4 mph - N/A   Scattered Clouds
7:14 PM 46.4 °F 41.5 °F 37.4 °F 71% 29.59 in 10.0 mi South 10.4 mph 16.1 mph N/A   Mostly Cloudy
7:34 PM 48.2 °F - 37.4 °F 66% 29.58 in 10.0 mi SSW 10.4 mph - N/A   Scattered Clouds
7:54 PM 46.4 °F 40.4 °F 37.4 °F 71% 29.58 in 10.0 mi SSW 13.8 mph 19.6 mph N/A   Scattered Clouds
8:15 PM 46.4 °F 41.1 °F 37.4 °F 71% 29.58 in 10.0 mi SSW 11.5 mph - N/A   Clear
8:34 PM 46.4 °F 40.1 °F 37.4 °F 71% 29.58 in 10.0 mi SSW 15.0 mph - N/A   Clear
8:54 PM 44.6 °F 38.4 °F 37.4 °F 76% 29.59 in 10.0 mi SSW 12.7 mph 19.6 mph N/A   Clear
9:14 PM 44.6 °F 38.8 °F 37.4 °F 76% 29.58 in 10.0 mi SSW 11.5 mph 18.4 mph N/A   Clear
9:34 PM 44.6 °F 38.4 °F 35.6 °F 71% 29.57 in 10.0 mi SSW 12.7 mph 17.3 mph N/A   Clear
9:54 PM 44.6 °F 38.4 °F 35.6 °F 71% 29.55 in 10.0 mi SSW 12.7 mph - N/A   Clear
10:14 PM 44.6 °F 38.8 °F 35.6 °F 71% 29.54 in 10.0 mi SSW 11.5 mph 19.6 mph N/A   Clear
10:34 PM 42.8 °F 36.2 °F 35.6 °F 76% 29.53 in 10.0 mi SSW 12.7 mph 17.3 mph N/A   Clear
10:54 PM 42.8 °F 35.8 °F 35.6 °F 76% 29.52 in 10.0 mi SSW 13.8 mph 17.3 mph N/A   Clear
11:14 PM 42.8 °F 35.4 °F 35.6 °F 76% 29.52 in 10.0 mi SSW 15.0 mph 18.4 mph N/A   Clear
11:34 PM 42.8 °F 36.2 °F 35.6 °F 76% 29.52 in 10.0 mi SSW 12.7 mph 18.4 mph N/A   Clear
11:54 PM 42.8 °F 35.8 °F 35.6 °F 76% 29.52 in 10.0 mi SSW 13.8 mph 17.3 mph N/A   Clear